Race Results for
2013 Sea Otter Classic- MOUNTAIN BIKE
Monterey, CA
(Event Information)
Downhill on 04/20/2013

Note: Ranking points are NOT upgrade points. An explanation of ranking points can be found here.


Men - OPEN - SENIOR - 19-29

 Place Points NameCity, StateTime USAC #BibTeam
1 Samuel Markling   02:30.7  880 
2 Kevin Carroll   02:45.0  996 
3 Jacob Sailor   02:46.2  981 
4 Chris Snyder   02:47.5  881 
5 Gavin Kirby   02:49.0  1030 
6581.65 Josh Eisen   Monterey, CA03:02.8 223708  879 
7 Nathan Cohen   03:16.2  878 

Men - OPEN - MASTER - 40+

 Place Points NameCity, StateTime USAC #BibTeam
1540.00 Vann Johnson   La Mesa, CA02:50.7 158993  882 
2556.67 Jack Kincaid   Spring Valley, CA02:52.2 133470  884 
3573.34 Lars Thomsen   San Jose, CADNF 83197  885 
3573.34 Craig Hart   Santa Cruz03:22.5 15270  883 Ride 2 Recovery

Men - CAT 3 - JUNIOR - 15

 Place Points NameCity, StateTime USAC #BibTeam
1 Matthew Gaucher   02:34.9  575 
2 Justin Zumwalt   02:36.0  1097 
3 Kane Miller   02:38.8  569 
4545.01 Matthew Koen   Belvedere Tiburon, CA02:40.1 379171  566 
5 Teddy Hayden   02:41.6  584 
6548.35 Austin Fotinos   Half Moon Bay, CA02:42.2 399685  1021 
7 Nathan Clark   02:42.7  583 
8 Casey Cunningham   02:44.9  570 
9553.36 Campbell Nolan   Belvedere Tiburont, CA02:45.7 405317  573 
10 Connor Armstrong   02:46.2  585 
11 DEREK MCCUISTON   02:46.9  568 
12558.37 Brandyn Harris   Sparks Nevada02:47.7 394577  571 
13560.04 Nathan Kohl   Cameron Park, CA02:48.6 357271  578 Kinetic Cycles
14 Josh Brewer   02:48.6  563 
15 Drew Loring   02:49.8  565 
16 Cameron Richardson   02:53.5  588 
17 Carter Pope   02:54.7  579 
18 Branson Morain   02:54.9  1166 
19 NICHOLAS WEMYSS   02:57.1  1124 
20 Tanner Simonovich   02:58.1  576 
21573.40 Jameson Radu   Tiburon02:58.1 362390  580 
22 Daniel Long   02:59.2  582 
23 Sam Baum   02:59.7  1101 
24 Mason Morgan   03:02.4  574 
25 Blair Whitted   03:04.6  577 
26 Donovan Francis   03:05.3  567 
27 Austen Allen   03:06.4  589 
28 Nick White   03:07.6  372 
29586.76 Ben Hafer   Atascadero03:16.8 403286  581 
30588.43 Max Bauerle   Ben Lomond03:24.5 400918  586 
31 Aaron Campello   03:42.8  587 
DNF Isaac Farrell   DNF  572 
DNF David Peterson   DNF  564 

Men - CAT 3 - JUNIOR - 16

 Place Points NameCity, StateTime USAC #BibTeam
1 Drew Rausch   02:32.7  602 
2541.61 Russ Taylor   Salem, OR02:34.8 35126  613 
3543.22 Gus Phelan   San Luis Obispo, CA02:38.0 366048  610 
4544.83 Travis Carr   Felton, CA02:38.7 384571  1088 
5 Kyle Ashcraft   02:40.3  594 
6 Ravi Patel   02:42.2  1082 
7 Harry Head   02:43.0  592 
8 Steven McCloskey   02:44.2  1086 
9 Jeremy Donk   02:49.0  620 
10 Dillon Gooder   02:49.5  619 
11 Nicholas Karnes   02:50.6  593 
12 Andrew Schreck   02:50.6  614 
13 Colton Muelrath   02:50.8  600 
14 Beck Farrell   02:50.9  611 
15 Jakob Chenoweth   02:52.0  1146 
16 Henry Baron   02:54.3  1083 
17 Joe Lancaster   02:56.1  598 
18567.37 Chad Kanner   Laguna Beach02:57.1 403239  606 
19 Joshua Brady   02:58.9  597 
20 Tommy Tognoli   02:59.7  591 
21572.20 Jordan Moore   Quincy, MA03:01.1 114792  608 Onion River Sports
22 Clay Wilson   03:01.8  601 
23 Jenner Poulsen   03:02.1  603 
24 John Feeney   03:04.5  596 
25 Adrian Gumba   03:04.8  599 
26 NATHAN MUCCIA   03:06.3  616 
27 Gavin Shafer   03:06.4  
28 Luke Hildebrand   03:11.0  612 
29 Max Reck   03:15.7  1042 
30 Max Schrock   03:17.3  615 
31 JOHN DUNBAR   03:21.3  609 
32 Jesse Paris   03:49.9  621 
DNF Joel Clark   Richmond, VADNF 7024  699 
DNF Kavi Rengel   DNF  595 
DNF Sam Fletcher   DNF  617 
DNF Christopher Baringer   DNF  605 

Men - CAT 3 - JUNIOR - 17

 Place Points NameCity, StateTime USAC #BibTeam
1 Dillon Santos   02:30.1  636 
2 Dylan O'Connor   02:31.0  627 
3 JP Purdom   02:33.5  623 
4546.24 Matthew Brady   Lawrenceville, GA02:33.6 237490  635 
5 Erik Thorson   02:38.7  642 
6 Mitchell Pisciotta   02:39.3  629 
7 John Curtis   02:39.5  632 
8 Gabe Friedman   02:39.6  638 
9 Sean McGuinness   02:41.3  641 
10 EC Halicki   02:41.9  1102 
11 Brian Cahal   02:42.1  633 
12 Stuart Hanna   02:42.3  625 
13 Sean Campbell   02:42.6  646 
14567.04 Spencer Kibbe   San Luis Obispo, CA02:47.3 360740  640 
15 Sean Haran   02:47.6  622 
16 Kai Bannister   02:49.1  643 
17 Ben Alden   02:49.3  631 
18 Liam Todd   02:49.7  639 
19577.44 Gabe McDonald   Grass Valley, CA02:51.0 337868  706 Placer Foothill Mountain Bike Club
20 Joshua Freedman   02:52.5  634 
21 Peter Karren   02:57.4  644 
22583.68 Chris Clifford   Greenbrae, CA03:03.9 375816  630 
23585.76 Adam Persson   San Rafael, CA03:04.3 402636  624 
24 Jordan Derecho   03:09.9  626 
25 Caden Leonard   03:22.7  1090 
DNF JARED BONDS   DNF  628 
DNF Jackson Houdek   DNF  637 

Men - CAT 3 - JUNIOR - 18

 Place Points NameCity, StateTime USAC #BibTeam
1 Will Harper   02:38.4  650 
2 Ross Harrington   02:39.0  652 
3546.66 Alec Stambersky   Murrietaurrieta, CA02:39.9 391478  1062 
4549.99 Sean Ungvarsky   Phoenix, AZ02:40.1 405064  661 
5553.32 Zach Hutelin   Ft. Lauderdale Fl02:42.4 374662  645 
6 James Dondono   02:42.5  655 
7 Kyle Crawford   02:42.7  653 
8 Connor Rickey   02:43.6  659 
9 Eric Ringsrud   02:44.2  656 
10 Chris Heyman   02:48.5  647 
11 Chayney Perez   02:51.3  658 
12 Lucas Chambliss   02:53.0  651 
13 Justin Honeyman   02:56.1  648 
14 KYLER MASON   03:08.9  1163 
15 Dan Folwarkow   03:09.7  649 
16 Marc Maza   03:11.9  660 
DNF Charlie Chenoweth   DNF  1147 
DNF Logan Weber   DNF  688 
DNF Kip Ringsrud   DNF  657 
DNF Evan Goldsmith   DNF  654 

Men - CAT 3 - SENIOR - 19-24

 Place Points NameCity, StateTime USAC #BibTeam
1 Dalton Bush   02:28.6  686 
2 Matt Winslow   02:30.6  984 
3542.78 Austin Rauh   Reno02:31.9 274232  685 Reno Wheelmen
4544.17 Seth Anderson   Westphalia, MI02:33.1 398589  672 
5545.56 BRENDON ROACH   Capistrano Beach, CA02:33.3 399671  1160 
6546.95 Ben Turner   Surprise, AZ02:36.4 374904  694 
7 Larry Hagen   02:38.1  680 
8 Bryce Butzine   02:38.5  985 
9 Nicholas Gasparich   02:39.2  692 
10 Kirk Kaubish   02:39.7  673 
11 Eugene Holland   02:39.9  1049 
12 Gage Straube   02:40.2  1070 
13 Omid Ghassemi   02:41.1  684 
14558.07 John Mullane   Watsonville, CA02:41.4 250580  701 
15559.46 Phil Tercero   Morgan Hill Ca02:43.3 396818  669 
16 Reuben Demirdjian   02:43.5  698 
17 Billy Arsenault   02:43.8  682 
18 Satchel Cronk   02:44.2  675 
19 Luke Beattie   02:44.2  681 
20 Ryan Gumm   02:45.3  703 
21 Dean Talley   02:46.3  1051 
22 Jonathan Nissing   02:47.9  1052 
23570.58 TRAVIS WELLS   Groveland , CA02:49.3 365012  687 
24 Jack Heeber   02:50.3  693 
25573.36 Spencer Lehn   Roseville, CA02:50.9 335384  691 
26 Jeff Norton   02:55.1  689 
27576.14 Kevin Shane   Lone Tree, CO02:56.2 263257  670 
28577.53 Kyle Josephson   Aptos, CA02:58.4 403711  662 
29 Bryan Doney   02:58.7  707 
30580.31 Salvador Patino   Albany, CA03:07.3 365013  678 
31581.70 Jacob Abruzzini   Gilroy, CA03:14.8 361418  700 
32 Bryce Jensen   03:15.5  666 
33 Travis Ashbrook   03:17.1  674 
34585.87 Karoly Gyetvai   San Jose, CA03:19.9 400920  667 
35 Jacob Andrews   03:22.0  695 
36 John Reyes   03:35.7  697 
37 Daniel Silva   03:42.0  704 
DNF Joseph Engelman   DNF  679 
DNF Liam Gleason   Santa Clara, CADNF 292521  1054 
DNF Matthew Akin   DNF  1043 
DNF Nick Velichko   DNF  690 
DNF Elijah Gacad   DNF  702 
DNF ben unruh   DNF  683 
DNF Brandon Lincoln   DNF  284 
DNF Kevin Hom   DNF  676 
DNF Sean Scheufler   DNF  671 
DNF Justin Enos   DNF  705 
DNF Steve Jenness   DNF  668 
DNF Evan Harris   SparksDNF 393893  665 
DNF Nick Kutateli   DNF  663 
DNF Cameron Hensley   DNF  677 

Men - CAT 3 - SENIOR - 25-29

 Place Points NameCity, StateTime USAC #BibTeam
1 Eddie Sequinot   02:32.4  943 
2542.50 Chris Sparks   Redlands, CA02:34.2 59934  725 
3 Nick Ericksen   02:38.9  718 
4 John Leuty   02:40.5  956 
5 Trevor VanPatten   02:42.3  993 
6552.50 Ian Marshall   Portland, OR02:44.2 73191  1103 
7 Tony Trahan   02:44.4  727 
8 Eli Wolverton   02:45.3  717 
9 Danny Mendoza   02:46.9  724 
10562.50 Sam Rodriguez   Santa Margarita02:49.7 292435  722 
11565.00 Andrew Eskildsen   Pleasanthill, CA02:50.2 285296  708 
12567.50 Roberto Roque   Lafayette, CA02:51.0 326088  710 
13 ADAM HAMMERMAN   02:55.5  1155 
14 Arthur Lau   02:57.5  719 
15 Andrew Marshall   02:58.8  714 
16 Bryan Milazzo   03:03.9  712 
17 Steven Linderman   03:04.5  1171 
18 Matt Harken   03:09.6  1022 
19 Dan Pasion   03:12.2  716 
20 ROBERTO SANCHEZ   03:14.5  713 
21 Carlo Montelillo   03:17.9  1110 
DNF James Gorrell   Carmichael, CADNF 270927  709 
DNF Trevor Vanpattan   DNF  726 
DNF Brian Keene   DNF  721 
DNF Maxwell Sobel   DNF  711 
DNF Adam Kaeding   DNF  715 
DNF Matt Merchant   DNF  720 

Men - CAT 3 - SENIOR - 30-34

 Place Points NameCity, StateTime USAC #BibTeam
1 Steven Lewis   02:36.4  735 
2 Jon Pack   02:37.1  743 
3545.56 David Fouche   Lexington, MA02:42.7 138665  740 
4 Nicholas Bresette   02:45.7  737 
5 Alex Bustamente   02:46.1  739 
6553.90 Christopher Ritchey   Mountain Ctr, CA02:51.2 40376  734 
7556.68 Carlos Espinoza   Annandale, VA02:51.6 286229  731 
8 Seth Bennett   02:53.7  733 
9562.24 Scott Wenberg   La Mirada02:54.3 403402  749 
10 Zaldy rey Albelda   02:57.0  742 
11 Richard Balagasay   03:01.2  745 
12 David Jacoby   03:03.4  1137 
13 Hien Lam   03:03.8  746 
14 Brandon Siegers   03:04.1  1104 
15 RONNIE CATABAY   03:05.0  730 
16 Kris Chamberlin   03:09.1  741 
17 Pete Biggam   03:09.5  732 
18 David Ryan Salomon   03:40.5  744 
19590.04 Richard Lawrence   Mission Viejo, CA03:52.7 86828  728 
DNF Gant Van der Boom   DNF  747 
DNF Michael Napier   Fresno, CADNF 392266  748 
DNF Cort Mao   DNF  736 
DNF David Roudpeyma   DNF  729 
DNF Evan Currid   DNF  738 

Men - CAT 3 - SENIOR - 35-39

 Place Points NameCity, StateTime USAC #BibTeam
1 James Bender   02:39.2  768 
2 DANIEL FOSTER   02:43.5  753 
3547.70 Sven Raz   Pacifica, CA02:44.3 127714  754 
4551.55 Andy Jones   Springfield, OR02:47.1 136700  953 
5 Joshua Bietz   02:48.9  764 
6559.25 Jens Raz   Escondido, CA02:52.5 226370  765 
7 Michael Benninghofen   02:57.1  766 
8566.95 Stephen Dermer   Santa Cruz, CA02:57.4 356752  751 
9 Kevin Antos   03:00.1  762 
10574.65 Aaron Faupell   Belmont, CA03:00.6 392841  759 Quadzilla Racing
11578.50 Daniel Lebson   Folsom, CA03:01.3 295237  761 
12 Mark Aguila   03:03.5  982 
13 Justin Russell   03:24.2  752 
14590.05 Jeremy Penfold   Severence, CO04:26.9 176568  767 
DNF FRANKLIN JUANICH   DNF  750 
DNF Shane Scrimager   Grass Valley, CADNF 296964  755 
DNF steve torres   Exeter, CADNF 250515  756 
DNF Paul Boyer   DNF  757 
DNF Jaime Adame   Chico, CADNF 276648  758 
DNF Andre Ramsey   DNF  760 
DNF Scott Faser   Roseville, CADNF 334198  763 
DNF Troy Laffey   DNF  968 

Men - CAT 3 - MASTER - 40-49

 Place Points NameCity, StateTime USAC #BibTeam
1 STEFANO NIGLIORINI   02:24.5  1153 
2541.39 David Brady   Livermore, CA02:33.1 101967  793 
3542.78 Steve Kjaer   Aptos, CA02:34.1 19309  788 
4 Brian Larson   02:35.5  786 
5 Nathan Smith   02:39.0  804 
6 Eric Jackson   02:39.9  785 
7 Michael Habicht   02:42.1  774 
8549.73 james carey   Henderson, NV02:42.5 237556  780 
9 DAVID IRWIN   02:43.9  773 
10 Rogelio Flores   02:45.4  775 
11553.90 Chris Johnson   Eureka, CA02:46.7 86457  1095 Adventures Edge
12 Russell Lancaster   02:50.1  779 
13 Gary Hofsheier   02:50.7  802 
14 John Fotinos   02:51.8  1020 
15 Dash Pedro   02:52.0  769 
16560.85 Steve Lawrence   Salt Lake City, UT02:52.7 322076  1024 
17 Marcel Ayers   02:54.7  799 
18563.63 Timothy Mitchell   Sanfrancisco, CA02:55.1 282752  983 Evergreen Cycling
19 Brian White   02:55.6  794 
20 Mario Hoang   02:57.1  797 
21 RICK CASTRO   02:58.0  801 
22 Matt Donlan   02:58.6  781 
23570.58 Patrick Haran   San Luis Obispo, CA03:00.8 204330  770 
24 Brandon Kato   03:02.5  796 
25573.36 Trent Mikami   San Jose, CA03:03.1 24303  803 
26574.75 Michael Legge   Thousand Oaks, CA03:06.4 154855  795 
27576.14 John Tymo   Pleasant Hill, CA03:06.6 261733  772 
28577.53 Edward Sporbert   Westfiel Ma03:06.8 198456  1164 
29578.92 Sean Koyano   San Jose, CA03:07.6 391236  800 
30 Herbert Jingco   03:08.6  789 
31 Paul Mercure   03:09.2  782 
32 Richard Miralles   03:13.3  776 
33 Chad Minton   03:14.6  798 
34 Ronnie Usrey   03:15.0  947 
35 Doug Berry   03:15.4  777 
36 Paul Campbell   03:17.7  778 
37 Wilfredo Escolar Jr   04:01.2  792 
DNF Vincent Crivello   DNF  771 
DNF Joey Adame   DNF  784 
DNF Chris Bobzien   DNF  787 
DNF David Irvine   DNF  790 

Men - CAT 3 - MASTER - 50+

 Place Points NameCity, StateTime USAC #BibTeam
1 Jeff Franklin   03:01.9  809 
2 Chris Simoneaux   03:02.1  1129 
3 Charles Velez   03:02.5  806 
4556.68 Andy Somerville   Newport Beach, CA03:04.8 33456  807 
5562.24 Richard Hayamizu   Mountain View, CA03:07.8 211666  808 
6567.80 Tibi Szilagyi   Capitola, CA03:21.7 190138  1027 
7573.36 Gerardo Perez   Antioch, CA03:22.4 274713  805 
8578.92 Bobby McMullen   Redding, CA03:25.4 234393  1001 
9 Steven Wilson   03:37.9  1125 
10 Michael Yartzoff   03:44.6  1067 

Men - CAT 2 - JUNIOR - 15-16

 Place Points NameCity, StateTime USAC #BibTeam
1 Joe Van Pykeren   02:25.8  369 
2541.72 Louis Mollett   Ashland, OR02:27.2 385250  970 
3 John Waldron   02:28.5  202 
4545.16 Lukas Katsandris   San Clemente, CA02:29.2 401118  365 
5 Logan Richardson   02:29.7  604 
6 ISAAC WALLEN   02:31.9  1122 
7 Dylan Pesce   02:32.4  367 
8 Ben BRay   02:33.5  358 
9553.76 Cody Toms   San Clemente, CA02:33.8 401302  366 
10 Devin Ryan   02:35.5  1161 
11557.20 Christof Andersen   Capistrano Beach02:35.8 401661  375 
12 Ethan Toom   02:36.3  371 
13 Wyatt Cook   02:36.3  368 
14 Matthew Lane   02:36.5  377 
15564.08 Jayden Farley   San Clemente, CA02:37.5 403389  379 
16 Ryan Fitzgerald   02:37.6  1089 
17 William Castaneda   02:37.8  364 
18569.24 Daniel Stair   Elgin Afb, FL02:39.6 144528  370 
19 Dan Carroll   02:41.3  995 
20 Austin Lancaster   02:42.1  362 
21574.40 Kyle Legge   Newbury Park02:42.3 400648  373 
22576.12 Shayden Housley   Murray, UT02:43.6 374992  378 
23577.84 Jonathan Legge   Newbury Park02:44.0 399360  374 
24579.56 Ethan Sokolowski   Atascadero Ca02:45.8 392406  214 
25581.28 Tanner Sears   San Clemente, CA02:47.6 400994  607 
26 Donovan Rice   02:52.7  359 
27 Ian Good   02:53.3  376 
28 Travis Hogue   02:59.7  217 
29 Alex Kolda   02:59.9  361 
30 Ethan Burns   03:01.4  979 
DNF Logan Somerville   DNF  360 
DNF Kevin Gregg   Pacifica, CADNF 361275  363 

Men - CAT 2 - JUNIOR - 17-18

 Place Points NameCity, StateTime USAC #BibTeam
1540.00 Sebastian Bauer   Novato, CA02:19.5 385483  388 
2 Julian Tristan Divine   02:27.2  393 
3542.86 Jesse Taysom   Pocatello, ID02:27.5 379617  406 
4544.29 Caleb Minthorn   Sarasota, FL02:28.1 347086  392 
5 Elliot Benson   02:28.6  384 
6547.15 Alec Pasqualina   Alamo, CA02:29.3 380657  402 
7548.58 Sebastian Andersen   Capistrano Beach, CA02:29.7 401659  409 
8 JONATHAN SIMEK   02:30.9  405 
9551.44 Bryce Helbling   Sandy, UT02:31.9 406096  412 
10552.87 Karl Luhmann   Novato, CA02:32.3 365183  381 
11 Spencer Barnes   02:32.6  411 
12555.73 Winter Nason   Santa Rosa, CA02:34.6 358967  1076 
13557.16 Zach Miller   Canton, GA02:34.7 375946  400 
14 Kyle Bowman   02:35.2  410 
15560.02 Cole West   Auburn, CA02:36.0 336076  1004 Placer Foothill Mountain Bike Club
16561.45 Dorin Farley   San Clemente, CA02:36.2 401627  413 
17 Zach Bodeman   02:36.3  389 
18 Ryan Heeber   02:36.6  398 
19565.74 Drew Soltis   Mill Valley, CA02:36.6 292269  1060 
20 Jonathan Van Patten   02:36.7  397 
21568.60 Wyatt Morin   Roseville, CA02:37.2 266930  390 Victory Velo Racing
22 Matthew Gomez   02:39.3  396 
23 Ryan Simonovich   02:39.4  383 
24 Kyle Kaminski   02:39.6  401 
25 Ryan Durazo   02:41.2  395 
26 Austin Ables   02:41.9  404 
27 Taylor DeMan   02:43.7  394 
28578.61 Eric Goshay   Richmond Ca02:44.5 405873  391 
29 Riley Gibson Graf   02:44.6  387 
30 Blake Alhart   02:49.1  386 
31582.90 Benjamin Brydon   San Carlos, CA02:50.2 342816  999 
32 Lucas Maranon   02:53.0  403 
33 Wyatt Composti   02:55.5  960 
34 Nathan McWhorter   02:58.4  399 
35 Adam Carp   03:07.0  407 
36 Karl Schultz   03:15.1  408 
DNF Terry HAYMES   DNF  382 
DNF Frankie Etienne   DNF  385 
DNF Joey MacKillican   DNF  1006 

Men - CAT 2 - SENIOR - 19-21

 Place Points NameCity, StateTime USAC #BibTeam
1 Kyle Madden   02:22.8  976 
2 Rex Peel   02:24.7  419 
3542.78 Tim Remick   San Diego Ca02:26.8 395068  433 
4 Cody Breuninger   02:27.3  423 
5 Kris Schroeder   02:28.6  946 
6 Zac Myers   02:30.1  421 
7 Nicky DiNapoli   02:30.3  664 
8 Kevin Ball   02:30.5  986 
9 Shea Weidler   02:30.8  429 
10552.51 Jack Drain   Park City, UT02:30.8 405024  420 
11 Garret Hammack   02:30.9  416 
12 Andrew Stallings   02:31.6  1025 
13 Gil Carr   02:31.6  437 
14558.07 Alex Winkler   Flagstaff, AZ02:32.5 328984  428 Northern Arizona University
15 Ben Stamziale   02:32.8  1117 
16 Steven Schwartz   02:33.0  440 
17562.24 Conor Briese   San Anselmo, CA02:33.2 321228  425 
18 Jeff Leishman   02:33.9  417 
19565.02 Aaron Albor   Orangevale, CA02:34.3 335944  424 
20566.41 Grayson Sanchez   San Clemente, CA02:34.4 401340  1134 
21 Ryan Hall   02:35.4  435 
22 Luca Digby   02:35.5  431 
23 Rocky Lee   02:35.8  434 
24571.97 Jacob Riffel   Camarillo, CA02:37.8 383026  1093 
25 Trenton Berner   02:38.5  432 
26 Matt Prout   02:38.8  422 
27576.14 Kellin Honodel   Sanjose, CA02:40.5 313146  987 
28 Jayaram Notestine   02:41.3  1107 
29 Spencer Philp   02:43.1  438 
30580.31 Will Stewart   Livermore, CA02:43.2 359013  1092 
31 Gordon Belyea   02:43.3  1144 
32 James Johnson   02:44.2  439 
33584.48 Hunter Gaither   Watsonville, CA02:45.9 260467  426 
34 Bennett Kornbrath   02:47.0  418 
35 Joel Hitchen   02:47.7  436 
36 Bud Bolin   03:08.5  427 
37590.04 Brandon Lippold   San Luis Obispo, CA03:39.2 333588  414 
DNF Chris Brenchley   Saratoga, CADNF 338774  415 
DNF Ryan Ellis   DNF  430 

Men - CAT 2 - SENIOR - 22-24

 Place Points NameCity, StateTime USAC #BibTeam
1 Trevor Roland   02:24.1  451 
2541.67 Tanner Wittman   Scottsdale, AZ02:25.6 392137  456 
3 Vincen Kimber   02:27.7  972 
4545.01 Thacher Greene   Angwin, CA02:28.2 368406  445 
5546.68 Andrew Soto   Santa Margarita, CA02:29.8 359116  1005 
6 Patrick Costa   02:31.0  1069 
7 Aaron Dale   02:32.2  951 
8 Schuyler Spence   02:32.3  696 
9 Tom Ziegler   02:32.8  458 
10555.03 Mike Yartzoff   Redlands, CA02:33.1 360906  1066 
11 Nate Contente   02:33.1  461 
12558.37 Ross McDonald   Los Angeles, CA02:34.9 389439  443 
13 Mike Pedemonte   02:35.4  1114 
14 Steve Ralston   02:35.8  455 
15563.38 Andrew Kathner   San Jose, CA02:35.8 370466  1119 
16565.05 Jordan Hartman   Seaside, CA02:35.9 331446  449 
17 Alex Hodson   02:36.7  454 
18 Jason (Jay) Trautman   02:38.3  460 
19 Tyler Matejcek   02:41.8  1142 
20 Keegan McAuliffe   02:42.0  448 
21 Chuck Finlay   02:43.5  463 
22 Trevor Torres   02:43.8  457 
23 Scott Goodman   02:44.5  462 
24 Anthony Orgain   02:46.4  444 
25580.08 Anthony Giordani   Novato, CA02:46.7 258738  450 
26 Timothy Kunakov   02:48.6  453 
27 Erik Mackenstadt   02:49.3  1145 
28 Scott Gregory   02:51.7  1121 
29 Jesse Copley   02:57.2  952 
30 Raphael Sonstein   05:00.1  1108 
31590.10 Casey Watson   San Rafael, CA09:33.9 233091  452 
DNF Salar Salehi   DNF  459 
DNF Evan Peterson   Mason City, IADNF 259918  446 
DNF CJ Trexler   DNF  441 
DNF Ryan Duarte   Grass Valley, CADNF 221526  279 Bicycle Emporium
DNF Darren Looney   BisbeeDNF 368058  442 

Men - CAT 2 - SENIOR - 25-29

 Place Points NameCity, StateTime USAC #BibTeam
1 Robert Boger   02:21.3  493 
2 Ryan Johnson   02:21.8  1068 
3 Anthony Locke   02:25.2  489 
4 Johnny Brooks   02:25.5  467 
5 TYLER AUSMUS   02:27.2  1120 
6 James Fuller   02:27.4  1077 
7 Michael Hoover   02:28.0  480 
8546.37 Mack Crouch   Carmel, CA02:29.1 198495  1034 
9 Jeff Silliman   02:29.7  465 
10548.19 Trevor Gay   Dayton02:29.9 210261  490 
11549.10 Dustin Yue   Auburn, CA02:31.6 261345  468 NRL Racing Development Team
12 Braedon Freeland   02:32.2  1050 
13 Daniel Pedemonte   02:32.2  1128 
14 John Rempel   02:32.3  1011 
15552.74 Brady DeLong   Cincinnati, OH02:32.6 393760  1053 
16 Ryan Rodriguez   02:32.6  496 
17 Carlos Lugo   02:33.1  476 
18 Richard Finn   02:33.2  1010 
19556.38 Keith Roberts   Richmond, VA02:33.4 40963  500 
20 brannon cantrell   02:33.6  488 
21 Charlie Mcevoy   02:34.4  475 
22559.11 Jake Cooper   Temecula, CA02:34.4 403036  495 
23 Josh Morris   02:35.2  482 
24560.93 Reuben Krofft   Kirkland, WA02:35.4 278771  470 
25561.84 Aaron Kerson   Napa, CA02:36.0 134382  295 
26 Edward Bernal   02:36.7  1064 
27563.66 Bryan Worth   Irvine, CA02:37.1 377809  1131 
28 Richard Grove   02:37.6  464 
29 Ryan McAninch   02:38.2  1106 
30 Justin Wyper   02:38.3  962 
31567.30 Matthew Guise   San Luis Obispo, CA02:38.7 326720  491 
32 Joseph Calcagno   02:38.9  473 
33569.12 Jeremy Hill   San Antonio, TX02:38.9 244253  486 Bike World Racing
34570.03 Alec Sprick   Santa Rosa, CA02:40.0 196232  497 
35570.94 Christopher Daigle   Broussard, LA02:40.0 49112  484 
36 Nicholi Gray   02:41.2  492 
37 Morgan Gillis   02:41.7  1055 
38573.67 Jason Bricker   Columbia, MO02:41.8 267412  485 
39 Evan Spicer   02:42.8  494 
40575.49 Dylan Wright   Arcata, CA02:43.2 328902  474 
41 Jackson Cox   02:43.2  1135 
42 Darrin Geahry   02:43.3  1136 
43578.22 Shane Zuvella   San Ramon, CA02:43.7 393746  477 
44 Jonathan Zintek   02:43.8  466 
45 Andy Lo   02:44.0  498 
46580.95 Brian Randleman   Riverside, CA02:44.8 235744  1033 
47581.86 Chase Yeremian   Burbank, CA02:45.2 402460  1013 
48 Jose Carlos Go   02:45.4  478 
49 Daniel Conlon   02:46.8  1047 
50 Zachary Gosser   02:48.1  1126 
51 Eric Sandlin   02:49.1  1063 
52 Kevin Stasun   02:52.0  1105 
53 Joisah Colard   02:53.5  499 
54 Ben Bridger   02:57.1  483 
55589.14 Marcus Atkinson   Vista, CA03:00.6 392746  1032 
56 Klay Adair   03:11.7  481 
DNF RJ Wattles   DNF  469 
DNF Tobias Greenberg   DNF  471 
DNF Joseph Bell   DNF  479 
DNF Adolfo Osuna   DNF  487 
DNF Nick Rose   DNF  1115 

Men - CAT 2 - SENIOR - 30-34

 Place Points NameCity, StateTime USAC #BibTeam
1540.00 Kevin Bell   Santa Rosasanta Rosa, CA02:25.2 345758  1132 
2 Josh Podesto   02:25.6  510 
3 Andrew Gillis   02:28.7  955 
4 Brian Robinson   02:30.0  502 
5547.40 lane gonzales   San Luis Obispo, CA02:30.2 102408  520 
6 Chris Cowan   02:30.4  515 
7 Shane Mellem   02:31.5  511 
8 David Biehler   02:32.8  1085 
9 Clancy Coakley   02:33.6  517 
10 Robert Conner   02:35.9  505 
11558.50 Timothy Godfrey   Oceanside, CA02:36.5 401696  521 
12 Anthony Allopena   02:36.7  992 
13 Devan Rosdahl   02:37.1  501 
14 Andrew Peters   02:37.3  509 
15565.90 Patrick Alcisto   Charlotte, NC02:37.7 380688  1148 
16 Chris Demere   02:38.1  514 
17 Jesse Shirley   02:38.1  507 
18571.45 Grant Hutchinson   Oxford, MS02:39.5 292900  1112 
19 Mike Reisenleiter   02:41.1  516 
20575.15 Jeremy Boggs   Tempe, AZ02:41.3 4100  1037 
21577.00 Nicholas Hammond   Concord, CA02:43.1 348676  506 
22578.85 Aaron Littlefield   South Lake Tahoe, CA02:43.7 383761  1059 
23 Brad Behrens   02:46.4  1168 
24 Theo Mello   02:48.8  508 
25 Will Watson   02:49.2  503 
26 Jonathan Martinez   02:51.1  1065 
27 Reed Wright   02:52.2  1113 
28589.95 Cody Canales   Santa Cruz, CA02:54.3 80603  519 
DNF Chris Monroe   Decatur, ILDNF 294383  512 
DNF Jake Mallory   DNF  518 
DNF Ian Gustafson   DNF  504 

Men - CAT 2 - SENIOR - 35-39

 Place Points NameCity, StateTime USAC #BibTeam
1 Ryan Brown   02:26.4  533 
2 Ryan Day   02:27.8  528 
3 Mike Diorio   02:28.0  530 
4549.36 Chad Gallagher   Oakland02:29.1 287934  1046 
5552.48 Gabe Caldwell   707 743 134602:31.9 378476  973 
6555.60 Erik Eilers   San Diego, CA02:32.1 10593  525 
7 Harold Preston   02:33.7  524 
8 David Langran   02:34.8  522 
9564.96 Ed Dacosta   San Juan Capistrano, CA02:39.1 400524  526 
10 Joe Trussell   02:39.7  1111 
11 Marcos Aribas   02:41.0  534 
12574.32 Joe Van Niekerk   Mountain View, CA02:42.9 225396  532 
13 Shane Redhage   02:43.3  1031 
14 David Neilson   02:46.1  531 
15583.68 Max Whittaker   Sacramento, CA02:48.4 38089  529 
16 Mike Jackson   02:50.5  527 
17589.92 Jake Otsuka   Walnut Creek, CA02:58.2 252253  974 

Men - CAT 2 - MASTER - 40-49

 Place Points NameCity, StateTime USAC #BibTeam
1540.00 Chad Hubbard   Birmingham, AL02:25.0 328602  988 
2 Michael Shoemaker   02:25.3  537 
3544.34 RYAN DeGUZMAN   Ceres, CA02:27.0 169682  1123 
4 Erik Tipton   02:32.2  1008 
5 John Heeber   02:32.6  990 
6550.85 John Dawso   Boulder, CO02:33.4 168015  554 
7 Michael Waskey   02:33.6  550 
8555.19 Ray Charles   Oakland, CA02:34.7 345724  1040 
9557.36 Chris Beratlis   Pleasanton, CA02:35.7 145065  1029 
10559.53 PAUL WINTERMUTE   Half Moon Bay, CA02:41.0 249655  548 
11 DOUG MCINTOSH   02:43.1  553 
12563.87 Jerry Hazard   Alubquerque, NM02:43.8 301960  547 
13566.04 Clay Rogers   Spring Hill, TN02:43.9 303958  967 
14568.21 Pete Cordero   San Ramon, CA02:44.7 144384  1009 
15570.38 Gordon Dent   Scottsvalley, CA02:46.0 278474  552 
16 James Gilmore   02:46.6  957 
17 Rob Welsh   02:46.9  541 
18 Bonifacio Moyrong   02:47.7  543 
19579.06 Arthur Aguilar   Montebello, CA02:48.7 142476  1028 
20 Douglas Cheney   02:53.1  978 
21 Chris Giggy   02:53.5  549 
22585.57 Dave Rogers   Sevierville, TN02:57.8 385336  544 
23587.74 Ben Dorsey   San Jose, CA03:43.2 305041  540 
24 Chris Jones   03:45.5  545 
DNF Shane Stilwell   Sierra Vista, AZDNF 155240  535 Team Giant AZ
DNF Grady McLeod   Orangevale, CADNF 23715  536 
DNF David Phreaner   Santa Barbara, CADNF 195477  538 
DNF Adam Wegel   DNF  539 
DNF Mike Welsh   Palatine, ILDNF 280168  542 
DNF Michael Ryan   DNF  551 
DNF Bill Mol   Roseville, CADNF 189928  1056 
DNF Greg Cooper   DNF  1094 

Men - CAT 2 - MASTER - 50+

 Place Points NameCity, StateTime USAC #BibTeam
1 Mike Warren   02:29.6  558 
2 Ed Defty   02:31.4  555 
3 John Galvin   02:33.6  556 
4 Greg DT   02:35.3  562 
5 Dave Smith   02:37.8  557 
6 James Bradley   02:43.0  1012 
7 Randal Prout   02:49.2  994 
8 Walt Malzahn   02:52.7  561 
9582.66 Kent Woodfield   Ogden, UT02:52.9 295970  1019 
10 Ken Wright   02:57.7  559 
DNF Craig Anderson   DNF  560 

Men - JUNIOR - 1-10

 Place Points NameCity, StateTime USAC #BibTeam
1 Jackson Goldstone   03:20.3  812 
2 Maxwell Suffin   03:31.2  813 
3 Koa Depuydt   04:02.6  815 
4 Grant Russo   05:27.8  811 
5 DANIEL HRABAK   05:48.0  1152 
6590.00 Kieran Lawrence   Denver, CO05:58.2 363059  810 
DNF Ethan Fong   DNF  814 

Men - JUNIOR - 11-12

 Place Points NameCity, StateTime USAC #BibTeam
1540.00 Shawn Yakovich   Rock Springs, WY02:43.5 310645  997 
2544.55 Nathan Hickey   Monrovia, CA02:49.5 319320  858 PAA/REMAX
3549.10 Dante Silva   Chula Vista, CA02:57.4 288799  820 
4 Malcolm Castaneda   03:04.8  821 
5558.20 Matthew Sterling   San Jose, CA03:07.7 295509  971 
6 Tom Woodward   03:16.8  822 
7 Jack Taylor   03:17.5  824 
8571.85 JAG BARTON   Thousand Oaks, CA03:22.5 299371  1159 Triple Threat Cycling Team
9 Mason Fenzl   03:36.6  825 
10 James Barnes   03:40.6  817 
11585.50 Brennan Lawrence   Denver, CO03:58.5 363198  816 
12 Jacob Ballou   04:06.5  823 
DNF GIANNI LAMPERTI   Sebastopol, CADNF 355260  818 Team Swift
DNF LUCIANNO LAMPERTI   DNF  819 

Men - JUNIOR - 13-14

 Place Points NameCity, StateTime USAC #BibTeam
1527.16 Devin Kjaer   Aptos02:24.1 358825  861 
2 Richard Holec   02:31.0  868 
3529.68 NIkolas Nestoroff   San Marcos, CA02:34.7 316782  866 
4530.94 Nicholas Gallizioli   Los Gatos02:35.7 394860  862 
5 Jack Phreaner   02:37.2  831 
6 Jeremy Schwartz   02:37.8  834 
7534.72 Thomas Phelan   San Luis Obispo, CA02:39.4 366062  843 
8535.98 Duncan Nason   Forestville, CA02:40.3 358970  1075 
9537.24 Ben Johansen   Welches, OR02:40.7 382103  835 
10 Nicholas Kaekul   02:42.3  874 
11539.76 Shane Murphy   San Clemente, CA02:42.4 401074  853 
12541.02 Steven Walton   Henderson, NV02:44.0 53672  875 
13 RICKY CASTRO   02:45.7  871 
14543.54 Chase Willie   Longmont, CO02:46.6 298487  830 SMBA(Singletrack Mountain Bike Adventure
15 Sam Morris   02:47.0  855 
16 Holden Jones   02:47.8  847 
17 Garret Kniss   02:47.9  859 
18 Andreas Bauer   02:48.2  845 
19 Jackson Mitchell   02:49.3  833 
20551.10 Cole Sutton   Shingle Springs, CA02:50.7 336696  846 Trojans High School Mountain Bike Team
21 Evan Mercure   02:51.3  844 
22 Hunter Wehrli   02:51.6  837 
23 Mike Migliore   02:51.7  863 
24556.14 Chase Jamieson   La Center, WA02:53.5 295632  848 
25557.40 Taylor Pine   Livermore, CA02:53.5 400352  872 
26 Quinton Reece   02:54.0  832 
27 Carson Coppinger   02:54.3  828 
28 Elias Hutchinson   02:56.3  865 
29 Ellis Kahn   02:59.2  854 
30 William Mol   03:00.2  1016 
31 Sarkis Halajian   03:00.4  839 
32566.22 Jacob Black   Montgomery, AL03:00.7 308528  838 
33 Clayton Brady   03:02.4  869 
34 Parker Susmann   03:02.5  850 
35570.00 MICHAEL HARVEY   Clinton, LA03:02.8 308788  870 
36571.26 Aidan Donlan   San Rafael, CA03:03.4 359014  841 
37 Finley Cronin   03:05.0  873 
38 Aaron Arroyo   03:07.5  842 
39 Isaac Zepeda   03:09.5  961 
40 Hunter Walden   03:12.1  876 
41 Nicholas Dye   03:14.1  856 
42 Henry Van Pykeren   03:14.9  867 
43 Jordan Matthew   03:15.2  877 
44 Kellsey Donlan   03:15.4  840 
45582.60 Trevor Ford   Tegacay, SC03:21.2 295411  852 
46 Andrew Doud   03:25.6  864 
47 Josh Woodward   03:28.0  851 
48 Daniel Lawrence   03:35.0  827 
49 Joshua Dye   03:39.1  857 
50 Aidan Rhind   04:09.6  836 
51 Henry Morrissey   12:08.9  826 
DNF Justin Lear   DNF  849 
DNF Ryan Crivello   DNF  829 
DNF rider unknown    DNF  989 

Women - CAT 3

 Place Points NameCity, StateTime USAC #BibTeam
1 Jennifer McCready   03:01.2  928 
2543.33 Sarah Pittiglio   Davis, CA03:08.6 195004  923 
3 Lisa Martinez   03:12.1  940 
4 Leah Lind-White   03:14.2  925 
5 Inga Beck   03:19.8  1118 
6556.65 Kaydee Raths   Arcata, CA03:20.4 308570  938 
7 Heidi McMullen   03:21.4  1000 
8563.31 Marika Holmgren   Half Moon Bay, CA03:24.0 366164  922 
9 Sarah White   03:25.9  941 
10569.97 Erica Sander   Martinez, CA03:34.4 387630  937 
11 Jennifer Mitchell   03:46.3  924 
12 Emily Stevenson   03:49.5  1014 
13 Dana Newell   03:52.4  927 
14 Dawn Lawrence   03:54.8  920 
15 Jessie Hughes   04:01.6  930 
16 Natalie Bennett   04:55.2  1170 
DNF Donna McCready   DNF  939 
DNF Maya Brog   Novato, CADNF 382597  1044 
DNF Susan Jay   DNF  934 
DNF Veronica Torrez   DNF  933 
DNF Gabriela Currid   DNF  932 
DNF Marianne Cantwell   DNF  931 
DNF Carolyne Stockwell   Lemoore, CADNF 399959  926 
DNF Lala Mijares   DNF  921 
DNF LESLIE OLEY   Palo Alto, CADNF 397790  1162 

Women - CAT 2

 Place Points NameCity, StateTime USAC #BibTeam
1 Keara Clark   02:42.9  1058 
2 Erica Lawson   02:55.9  1169 
3 Tara Luansing   02:56.1  918 
4553.65 Colleen Carnathan   Palo Alto, CA03:03.4 185971  936 
5 Keely Shannen   03:03.9  1139 
6562.75 Kimberly Engelhart   Woodside, CA03:04.6 335948  912 
7567.30 Ayshe Tuncer   Aptos, CA03:07.1 362308  916 
8 Laura Batson   03:08.8  935 
9576.40 Christina Lee   Daly City03:09.3 392618  913 
10 Christina Jacobson   03:12.9  1071 
11585.50 Marci Panneck   Mooresville, NC03:20.2 384433  915 
12590.05 Rachel Carscaden   Santa Margarita, CA03:27.8 358971  917 
DNF Lee-Ann Beatty   Phoenix, AZDNF 246753  914 
DNF Samantha Kingshill   DNF  887 
DNF Diana Brucculieri   DNF  963 
DNF Erin Wilson   Fort Collins, CODNF 388461  919 

Women - JUNIOR - 1-14

 Place Points NameCity, StateTime USAC #BibTeam
1 Zoe Aduddell   03:43.0  1081 
2 McKenna Merten   Jamul Ca03:47.2 378493  886 

Women - JUNIOR - 15-18

 Place Points NameCity, StateTime USAC #BibTeam
1540.00 Avery Morin   Roseville, CA02:56.7 266914  888 Bear Development Team
2 Rachel Anderson   03:06.2  889 
3 Makenzie Kjaer   03:15.7  890 
4 Emily Gacad   03:53.8  891 

Report missing or incorrect license numbers

Volkswagen
ShimanoSierra NevadaOSMOSpyUSACDFCUOREBonk Breaker
UCI USA Cycling is the official governing body for all disciplines of competitive cycling in the United States. The 501c3, membership-based organization aims both to achieve sustained success in international cycling competition and to grow competitive cycling in America while delivering an exceptional customer experience.
View Children's Online Privacy Protection Policy
US Olympic Committee